Torna al catalogo

CZ-3C DEB

LostGTO
NORAD 40828·DEBRIS·🇨🇳 China

Lanciato Oct 31, 2010 da Xichang Satellite Launch Center

Loading…

TLE

ObsoletoSource: Space-Track

Epoca: Jul 22, 2015, 06:43 UTC

1 40828U 10057AV  15203.28034756  .00000353  00000-0  12955-1 0  9995
2 40828  20.8684  50.6336 7114068 165.2662 238.2739  2.24496229  3816

Traccia CZ-3C DEB in tempo reale con AllMySat

Download on the App Store